• En España
  • Lista de países
  • Para 7 días
  • Temperatura del agua
  • Mapa Satelital
  • El tiempo en el mapa
  • Informadores
  • user-avatar
    Iniciar sesión

    Tiempo cada hora Castelló de la Plana

    Hoy, 16 Agosto, Jueves

    Tiempo Temperatura Precipitaciones Viento Presión Humedad
    00:00 +27°C° 0 mm 3 mps 760 mmHg 82%
    01:00 +27°C° 0,2 mm 3 mps 760 mmHg 82%
    02:00 +27°C° 0,2 mm 2 mps 759 mmHg 82%
    03:00 +27°C° 0,2 mm 2 mps 759 mmHg 82%
    04:00 +27°C° 0,1 mm 3 mps 759 mmHg 82%
    05:00 +27°C° 0,1 mm 3 mps 759 mmHg 81%
    06:00 +27°C° 0,1 mm 3 mps 759 mmHg 80%
    07:00 +28°C° 0,3 mm 3 mps 759 mmHg 76%
    08:00 +29°C° 0,3 mm 4 mps 759 mmHg 71%
    09:00 +30°C° 0,3 mm 4 mps 759 mmHg 66%
    10:00 +30°C° 0,1 mm 4 mps 759 mmHg 62%
    11:00 +32°C° 0,1 mm 5 mps 759 mmHg 59%
    12:00 +33°C° 0,1 mm 5 mps 759 mmHg 56%
    13:00 +33°C° 0,1 mm 5 mps 758 mmHg 55%
    14:00 +33°C° 0,1 mm 5 mps 758 mmHg 54%
    15:00 +33°C° 0,1 mm 5 mps 758 mmHg 52%
    16:00 +33°C° 0,1 mm 5 mps 758 mmHg 56%
    17:00 +32°C° 0,1 mm 5 mps 757 mmHg 59%
    18:00 +30°C° 0,1 mm 5 mps 757 mmHg 62%
    19:00 +30°C° 0,2 mm 5 mps 758 mmHg 66%
    20:00 +29°C° 0,2 mm 4 mps 758 mmHg 69%
    21:00 +29°C° 0,2 mm 4 mps 758 mmHg 73%
    22:00 +28°C° 0,9 mm 3 mps 759 mmHg 71%
    23:00 +28°C° 0,9 mm 3 mps 759 mmHg 70%

    Mañana, 17 Agosto, Viernes

    Tiempo Temperatura Precipitaciones Viento Presión Humedad
    00:00 +28°C° 0,9 mm 3 mps 759 mmHg 68%
    01:00 +28°C° 0,2 mm 3 mps 759 mmHg 67%
    02:00 +28°C° 0,2 mm 2 mps 758 mmHg 66%
    03:00 +28°C° 0,2 mm 2 mps 758 mmHg 65%
    04:00 +27°C° 0,1 mm 2 mps 759 mmHg 66%
    05:00 +27°C° 0,1 mm 2 mps 759 mmHg 66%
    06:00 +27°C° 0,1 mm 2 mps 759 mmHg 67%
    07:00 +28°C° 0,2 mm 3 mps 759 mmHg 62%
    08:00 +29°C° 0,2 mm 3 mps 760 mmHg 57%
    09:00 +30°C° 0,2 mm 3 mps 760 mmHg 52%
    10:00 +30°C° 0,1 mm 3 mps 760 mmHg 50%
    11:00 +31°C° 0,1 mm 3 mps 760 mmHg 48%
    12:00 +33°C° 0,1 mm 4 mps 760 mmHg 47%
    13:00 +33°C° 0,1 mm 4 mps 760 mmHg 47%
    14:00 +33°C° 0,1 mm 4 mps 759 mmHg 48%
    15:00 +33°C° 0,1 mm 3 mps 759 mmHg 49%
    16:00 +33°C° 0,2 mm 3 mps 759 mmHg 51%
    17:00 +32°C° 0,2 mm 4 mps 759 mmHg 54%
    18:00 +30°C° 0,2 mm 4 mps 759 mmHg 57%
    19:00 +30°C° 0 mm 3 mps 760 mmHg 59%
    20:00 +29°C° 0 mm 3 mps 760 mmHg 62%
    21:00 +28°C° 0 mm 2 mps 761 mmHg 64%
    22:00 +28°C° 0 mm 2 mps 761 mmHg 63%
    23:00 +28°C° 0 mm 1 mps 761 mmHg 63%

    Pasado mañana, 18 Agosto, Sábado

    Tiempo Temperatura Precipitaciones Viento Presión Humedad
    00:00 +27°C° 0 mm 1 mps 761 mmHg 62%
    01:00 +27°C° 0 mm 1 mps 761 mmHg 62%
    02:00 +27°C° 0 mm 1 mps 761 mmHg 61%
    03:00 +26°C° 0 mm 2 mps 761 mmHg 60%
    04:00 +26°C° 0,3 mm 2 mps 761 mmHg 59%
    05:00 +26°C° 0,3 mm 2 mps 761 mmHg 58%
    06:00 +26°C° 0,3 mm 3 mps 761 mmHg 58%
    07:00 +27°C° 0,2 mm 3 mps 761 mmHg 55%
    08:00 +28°C° 0,2 mm 3 mps 762 mmHg 52%
    09:00 +28°C° 0,2 mm 3 mps 762 mmHg 49%
    10:00 +29°C° 0,1 mm 3 mps 762 mmHg 49%
    11:00 +30°C° 0,1 mm 4 mps 761 mmHg 49%
    12:00 +32°C° 0,1 mm 4 mps 761 mmHg 48%
    13:00 +30°C° 0,3 mm 4 mps 761 mmHg 51%
    14:00 +30°C° 0,3 mm 4 mps 761 mmHg 54%
    15:00 +30°C° 0,3 mm 4 mps 761 mmHg 57%
    16:00 +30°C° 0,3 mm 4 mps 761 mmHg 61%
    17:00 +29°C° 0,3 mm 4 mps 761 mmHg 64%
    18:00 +29°C° 0,3 mm 4 mps 761 mmHg 68%
    19:00 +29°C° 0,3 mm 3 mps 761 mmHg 70%
    20:00 +28°C° 0,3 mm 3 mps 762 mmHg 73%
    21:00 +28°C° 0,3 mm 3 mps 762 mmHg 75%
    22:00 +28°C° 0,1 mm 3 mps 762 mmHg 75%
    23:00 +27°C° 0,1 mm 2 mps 762 mmHg 75%

    19 Agosto, Domingo

    Tiempo Temperatura Precipitaciones Viento Presión Humedad
    00:00 +27°C° 0,1 mm 2 mps 762 mmHg 75%
    01:00 +27°C° 0,5 mm 2 mps 762 mmHg 75%
    02:00 +27°C° 0,5 mm 1 mps 762 mmHg 74%
    03:00 +26°C° 0,5 mm 1 mps 762 mmHg 73%
    04:00 +26°C° 0,8 mm 1 mps 762 mmHg 73%
    05:00 +26°C° 0,8 mm 1 mps 762 mmHg 73%
    06:00 +26°C° 0,8 mm 1 mps 762 mmHg 73%
    07:00 +27°C° 0,3 mm 1 mps 762 mmHg 69%
    08:00 +28°C° 0,3 mm 1 mps 762 mmHg 65%
    09:00 +29°C° 0,3 mm 1 mps 762 mmHg 61%
    10:00 +30°C° 0 mm 2 mps 762 mmHg 60%
    11:00 +30°C° 0 mm 2 mps 762 mmHg 58%
    12:00 +31°C° 0 mm 3 mps 762 mmHg 57%
    13:00 +31°C° 0,2 mm 3 mps 762 mmHg 57%
    14:00 +31°C° 0,2 mm 3 mps 761 mmHg 58%
    15:00 +32°C° 0,2 mm 4 mps 761 mmHg 58%
    16:00 +31°C° 0,3 mm 3 mps 761 mmHg 61%
    17:00 +30°C° 0,3 mm 3 mps 761 mmHg 63%
    18:00 +30°C° 0,3 mm 3 mps 761 mmHg 65%
    19:00 +29°C° 0,1 mm 2 mps 762 mmHg 67%
    20:00 +29°C° 0,1 mm 2 mps 762 mmHg 69%
    21:00 +28°C° 0,1 mm 2 mps 762 mmHg 72%
    22:00 +28°C° 0 mm 1 mps 762 mmHg 72%
    23:00 +28°C° 0 mm 1 mps 762 mmHg 72%

    20 Agosto, Lunes

    Tiempo Temperatura Precipitaciones Viento Presión Humedad
    00:00 +27°C° 0 mm 1 mps 762 mmHg 72%
    01:00 +27°C° 0 mm 1 mps 762 mmHg 72%
    02:00 +27°C° 0 mm 1 mps 762 mmHg 71%
    03:00 +27°C° 0 mm 1 mps 762 mmHg 71%
    04:00 +27°C° 0 mm 1 mps 762 mmHg 69%
    05:00 +27°C° 0 mm 1 mps 762 mmHg 67%
    06:00 +27°C° 0 mm 1 mps 762 mmHg 65%
    07:00 +28°C° 0 mm 1 mps 762 mmHg 57%
    08:00 +30°C° 0 mm 1 mps 762 mmHg 48%
    09:00 +31°C° 0 mm 1 mps 762 mmHg 40%
    10:00 +32°C° 0 mm 2 mps 762 mmHg 38%
    11:00 +34°C° 0 mm 2 mps 762 mmHg 37%
    12:00 +34°C° 0 mm 3 mps 762 mmHg 35%
    13:00 +34°C° 0 mm 3 mps 761 mmHg 36%
    14:00 +34°C° 0 mm 3 mps 761 mmHg 36%
    15:00 +34°C° 0 mm 3 mps 761 mmHg 37%
    16:00 +34°C° 0 mm 3 mps 761 mmHg 41%
    17:00 +33°C° 0 mm 3 mps 761 mmHg 44%
    18:00 +31°C° 0 mm 3 mps 760 mmHg 48%
    19:00 +30°C° 0 mm 3 mps 761 mmHg 51%
    20:00 +30°C° 0 mm 3 mps 761 mmHg 54%
    21:00 +29°C° 0 mm 2 mps 761 mmHg 58%
    22:00 +29°C° 0 mm 2 mps 761 mmHg 57%
    23:00 +28°C° 0 mm 2 mps 761 mmHg 56%

    21 Agosto, Martes

    Tiempo Temperatura Precipitaciones Viento Presión Humedad
    00:00 +28°C° 0 mm 2 mps 761 mmHg 56%
    01:00 +28°C° 0 mm 2 mps 761 mmHg 54%
    02:00 +28°C° 0 mm 2 mps 761 mmHg 53%
    03:00 +28°C° 0 mm 2 mps 761 mmHg 52%
    04:00 +28°C° 0 mm 2 mps 761 mmHg 51%
    05:00 +28°C° 0 mm 2 mps 761 mmHg 49%
    06:00 +28°C° 0 mm 2 mps 761 mmHg 47%
    07:00 +29°C° 0 mm 1 mps 761 mmHg 43%
    08:00 +31°C° 0 mm 1 mps 761 mmHg 38%
    09:00 +33°C° 0 mm 1 mps 761 mmHg 33%
    10:00 +33°C° 0 mm 1 mps 761 mmHg 32%
    11:00 +35°C° 0 mm 2 mps 761 mmHg 32%
    12:00 +36°C° 0 mm 3 mps 760 mmHg 31%
    13:00 +36°C° 0 mm 3 mps 760 mmHg 32%
    14:00 +35°C° 0 mm 3 mps 760 mmHg 33%
    15:00 +35°C° 0 mm 4 mps 760 mmHg 34%
    16:00 +35°C° 0 mm 3 mps 760 mmHg 37%
    17:00 +34°C° 0 mm 2 mps 760 mmHg 39%
    18:00 +32°C° 0 mm 2 mps 759 mmHg 42%
    19:00 +31°C° 0 mm 2 mps 760 mmHg 44%
    20:00 +31°C° 0 mm 1 mps 760 mmHg 46%
    21:00 +30°C° 0 mm 1 mps 761 mmHg 48%
    22:00 +30°C° 0 mm 1 mps 761 mmHg 48%
    23:00 +29°C° 0 mm 1 mps 760 mmHg 48%
    Mostrar más